Regional Weather Roundup
Issued by NWS

Home | Current Version | Previous Version | Text Only | Print | Product List | Glossary Off
Versions: 1 2 3 4 5 6 7 8 9 10 11 12 13 14 15 16 17 18 19 20 21 22 23 24 25 26 27 28 29 30 31 32 33 34 35 36 37 38 39 40 41 42 43 44 45 46 47 48 49 50

000
ASUS43 KOAX 201510
RWRNE

WEATHER ROUNDUP FOR NEBRASKA
NATIONAL WEATHER SERVICE OMAHA NE
1000 AM CDT FRI OCT 20 2017

NOTES: SATELLITE DATA IS BEING USED TO AUGMENT CLOUD COVER ABOVE
       12000 FEET.
       "FAIR" INDICATES FEW OR NO CLOUDS BELOW 12,000 FEET WITH NO
       SIGNIFICANT WEATHER AND/OR OBSTRUCTIONS TO VISIBILITY.


NEZ001>004-019>022-054>056-201600-
NEBRASKA PANHANDLE

CITY           SKY/WX    TMP DP  RH WIND       PRES   REMARKS
SCOTTSBLUFF    CLOUDY    47  41  80 SE5       29.69S
ALLIANCE       CLOUDY    48  44  86 S9        29.68S
CHADRON        MOSUNNY   55  38  52 SW7       29.62R
GORDON         FAIR      53  46  79 SW9       29.66F
KIMBALL        SUNNY     55  38  53 W5        29.73S
SIDNEY         CLOUDY    51  41  68 SW9       29.71F
$$

NEZ057>060-069>072-079>082-201600-
SOUTHWEST NEBRASKA

CITY           SKY/WX    TMP DP  RH WIND       PRES   REMARKS
NORTH PLATTE   MOSUNNY   58  50  75 S12       29.74F
IMPERIAL       MOSUNNY   59  50  72 S16G25    29.72F
LEXINGTON      PTSUNNY   58  49  72 S14       29.79F
MCCOOK         MOSUNNY   61  49  64 SE12      29.76F
OGALLALA       CLOUDY    56  49  79 SE8       29.72F
$$

NEZ005>010-023>029-035>040-094-201600-
NORTH CENTRAL NEBRASKA

CITY           SKY/WX    TMP DP  RH WIND       PRES   REMARKS
VALENTINE      MOSUNNY   59  48  67 S15       29.66F
AINSWORTH      MOSUNNY   59  49  70 S21       29.69F
BROKEN BOW     SUNNY     60  49  66 S17G26    29.76F
O`NEILL        MOSUNNY   59  50  72 S21G28    29.75S
ORD            SUNNY     61  50  67 S16G25    29.78F
THEDFORD       MOSUNNY   59  49  68 S21G29    29.72F
$$

NEZ041-046>049-061>064-073>077-083>087-201600-
SOUTH CENTRAL NEBRASKA

CITY           SKY/WX    TMP DP  RH WIND       PRES   REMARKS
GRAND ISLAND   SUNNY     60  53  77 S22       29.84F
AURORA         SUNNY     61  53  73 S17G24    29.86S
HASTINGS       MOSUNNY   61  51  70 S16G25    29.85F
HEBRON         MOSUNNY   64  54  71 S20G28    29.89F
HOLDREGE       MOSUNNY   58  51  76 S17G23    29.81F
KEARNEY        MOSUNNY   60  50  69 S18G25    29.82F
YORK           CLOUDY    59  54  82 S18G24    29.87F
$$

NEZ011>018-030>034-042>045-201600-
NORTHEAST NEBRASKA

CITY           SKY/WX    TMP DP  RH WIND       PRES   REMARKS
NORFOLK        PTSUNNY   62  52  69 S20G28    29.81F
ALBION         MOSUNNY   62  52  69 S23       29.82F
BLAIR          CLOUDY    64  54  70 S17G23    29.91F
COLUMBUS       MOSUNNY   62  53  72 S15G22    29.87S
TEKAMAH        CLOUDY    64  52  64 S12G23    29.90F
WAYNE          CLOUDY    60  54  78 S18       29.84S
$$

NEZ050>053-065>068-078-088>093-201600-
SOUTHEAST NEBRASKA

CITY           SKY/WX    TMP DP  RH WIND       PRES   REMARKS
LINCOLN        CLOUDY    65  54  67 S21G28    29.91F
OMAHA EPPLEY   CLOUDY    63  53  70 S16G25    29.94F
BEATRICE       MOSUNNY   62  55  76 S14G20    29.93F
FALLS CITY     MOSUNNY   62  53  72 S16       29.99F
NEBRASKA CITY  CLOUDY    64  57  76 S16G22    29.97F
PLATTSMOUTH    CLOUDY    61  55  83 S12       29.95F
$$

NEZ044-045-051>053-067-201600-
OMAHA AREA

CITY           SKY/WX    TMP DP  RH WIND       PRES   REMARKS
OMAHA EPPLEY   CLOUDY    63  53  70 S16G25    29.94F
BLAIR          CLOUDY    64  54  70 S17G23    29.91F
MILLARD        CLOUDY    64  55  72 S9        29.93F
OFFUTT AFB     PTSUNNY   62  53  73 SE14G20   29.93F
PLATTSMOUTH    CLOUDY    61  55  83 S12       29.95F
WAHOO          FAIR      65  53  66 S17G26    29.90F
$$




USA.gov is the U.S. government's official web portal to all federal, state and local government web resources and services.